Location: Firdgum
(53.2488°N, 5.5615°E)
Time: 10:54:13
(UTC+00:00)

Meteor 1-14 Rocket - Pass Details

Date: 08 December 2019
Orbit: 833 x 920 km, 81.3° (Epoch: 21 January)

Event Time Altitude Azimuth Distance (km) Brightness Sun altitude
Rises 05:55:18 0° 199° (SSW) 3,521 7.4 -14.3°
Reaches altitude 10° 05:57:45 10° 202° (SSW) 2,593 6.7 -13.9°
Maximum altitude 06:03:41 71° 286° (WNW) 974 4.3 -13.1°
Drops below altitude 10° 06:09:42 10° 10° (N) 2,629 6.7 -12.3°
Sets 06:12:13 0° 13° (NNE) 3,574 7.4 -11.9°
